This is the latest recevied weather packets stored in our database for station/object MB7UIK. If no packets are shown the sender has not sent any weather packets the latest 1 day(s).
| Time | Temp. | Humidity | Pressure | Rain* | Wind** | Luminosity | Snow |
|---|---|---|---|---|---|---|---|
| 1777976832 | 15° C | 100% | 1011.7 hPa | 0 mm | 1.34 m/s, 12° | - | - |
| 1777976806 | 15° C | 100% | 1011.7 hPa | 0 mm | 1.79 m/s, 34° | - | - |
| 1777976745 | 15° C | 100% | 1011.7 hPa | 0 mm | 1.34 m/s, 35° | - | - |
| 1777976684 | 15° C | 100% | 1011.7 hPa | 0 mm | 0.89 m/s, 32° | - | - |
| 1777976624 | 15° C | 100% | 1011.8 hPa | 0 mm | 2.68 m/s, 42° | - | - |
| 1777976564 | 15° C | 100% | 1011.8 hPa | 0 mm | 1.79 m/s, 43° | - | - |
| 1777976532 | 15° C | 100% | 1011.8 hPa | 0 mm | 1.79 m/s, 43° | - | - |
| 1777976504 | 15° C | 100% | 1011.8 hPa | 0 mm | 1.34 m/s, 351° | - | - |
| 1777976444 | 15° C | 100% | 1011.7 hPa | 0 mm | 1.34 m/s, 57° | - | - |
| 1777976384 | 15° C | 100% | 1011.8 hPa | 0 mm | 0.89 m/s, 323° | - | - |
| 1777976325 | 15° C | 100% | 1011.8 hPa | 0 mm | 1.34 m/s, 13° | - | - |
| 1777976266 | 15° C | 1% | 1011.8 hPa | 0 mm | 1.34 m/s, 51° | - | - |
| 1777976232 | 15° C | 1% | 1011.8 hPa | 0 mm | 1.34 m/s, 51° | - | - |
| 1777976205 | 15° C | 1% | 1011.8 hPa | 0 mm | 2.24 m/s, 350° | - | - |
| 1777976145 | 15° C | 1% | 1011.8 hPa | 0 mm | 2.68 m/s, 46° | - | - |
| 1777976085 | 15° C | 3% | 1011.7 hPa | 0 mm | 2.24 m/s, 12° | - | - |
| 1777976024 | 15° C | 7% | 1011.8 hPa | 0 mm | 2.24 m/s, 360° | - | - |
| 1777975964 | 15° C | 7% | 1011.7 hPa | 0 mm | 2.68 m/s, 9° | - | - |
| 1777975931 | 15° C | 7% | 1011.7 hPa | 0 mm | 2.68 m/s, 9° | - | - |
| 1777975905 | 15.56° C | 7% | 1011.7 hPa | 0 mm | 3.58 m/s, 350° | - | - |
| 1777975844 | 15.56° C | 6% | 1011.7 hPa | 0 mm | 3.58 m/s, 26° | - | - |
| 1777975784 | 15.56° C | 8% | 1011.7 hPa | 0 mm | 1.34 m/s, 10° | - | - |
| 1777975724 | 15.56° C | 10% | 1011.7 hPa | 0 mm | 1.34 m/s, 58° | - | - |
| 1777975666 | 15.56° C | 10% | 1011.7 hPa | 0 mm | 2.68 m/s, 9° | - | - |
| 1777975631 | 15.56° C | 10% | 1011.7 hPa | 0 mm | 2.68 m/s, 9° | - | - |
* Rain latest hour (hover to see other rain measurements)
** Current wind speed in m/s (hover to see current wind gust speed)